KB3KBR-WX Weather Reports


time (UTC)temp
C
wind
direction
speed
KPH
gust
KPH
rain 1hr
cm
rain 24hr
cm
rain mn
cm
humidity
%
barometer
mb
20260504014257 11 160 3.2 9.7 0.00 0.00 0.00 52 1009.5
20260504013727 11 160 3.2 11.3 0.00 0.00 0.00 53 1009.4
20260504013228 11 155 3.2 11.3 0.00 0.00 0.00 52 1009.4
20260504012701 11 156 3.2 9.7 0.00 0.00 0.00 51 1009.3
20260504012127 11 151 3.2 9.7 0.00 0.00 0.00 51 1009.3
20260504011631 11 156 3.2 9.7 0.00 0.00 0.00 50 1009.1
20260504011127 11 167 3.2 9.7 0.00 0.00 0.00 51 1009.1
20260504010627 11 169 3.2 9.7 0.00 0.00 0.00 50 1009.1
20260504010058 11 165 3.2 11.3 0.00 0.00 0.00 50 1009.2
20260504005527 11 156 3.2 9.7 0.00 0.00 0.00 50 1009.1
20260504005029 11 149 3.2 8.0 0.00 0.00 0.00 50 1009.2
20260504004459 12 157 3.2 11.3 0.00 0.00 0.00 49 1009.3
20260504003959 12 166 3.2 11.3 0.00 0.00 0.00 48 1009.2
20260504002927 12 186 4.8 14.5 0.00 0.00 0.00 48 1009.1
20260504002430 12 178 4.8 16.1 0.00 0.00 0.00 47 1009.1
20260504001900 12 182 6.4 16.1 0.00 0.00 0.00 47 1009.2
20260504001328 12 174 6.4 16.1 0.00 0.00 0.00 46 1009.1
20260504000827 12 174 4.8 19.3 0.00 0.00 0.00 46 1009.2
20260504000300 12 176 4.8 17.7 0.00 0.00 0.00 46 1009.1
20260503235729 12 173 4.8 17.7 0.00 0.00 0.00 46 1009.1
20260503235227 12 167 4.8 16.1 0.00 0.00 0.00 45 1009.1
20260503234727 12 164 4.8 12.9 0.00 0.00 0.00 45 1009.2
20260503234159 12 181 4.8 17.7 0.00 0.00 0.00 44 1009.1
20260503233627 13 182 6.4 19.3 0.00 0.00 0.00 45 1009.1
20260503233058 13 178 6.4 24.1 0.00 0.00 0.00 44 1009.1
20260503232559 13 169 4.8 24.1 0.00 0.00 0.00 43 1009.1
20260503232027 13 171 3.2 14.5 0.00 0.00 0.00 44 1009.2
20260503230957 13 175 8.0 19.3 0.00 0.00 0.00 42 1009.2
20260503230459 13 172 6.4 19.3 0.00 0.00 0.00 43 1009.2
20260503225927 13 179 6.4 19.3 0.00 0.00 0.00 43 1009.1
20260503225400 13 178 6.4 19.3 0.00 0.00 0.00 42 1009.2
20260503224900 13 172 8.0 19.3 0.00 0.00 0.00 42 1009.3
20260503224331 13 163 6.4 20.9 0.00 0.00 0.00 43 1009.2
20260503223227 13 178 6.4 17.7 0.00 0.00 0.00 42 1009.3
20260503222701 13 179 6.4 16.1 0.00 0.00 0.00 42 1009.3
20260503222128 13 187 6.4 20.9 0.00 0.00 0.00 43 1009.3
20260503221627 13 178 6.4 20.9 0.00 0.00 0.00 42 1009.3
20260503221127 13 168 6.4 20.9 0.00 0.00 0.00 43 1009.3
20260503220627 14 173 6.4 20.9 0.00 0.00 0.00 41 1009.2
20260503220128 14 161 4.8 19.3 0.00 0.00 0.00 42 1009.1
20260503215557 14 160 3.2 14.5 0.00 0.00 0.00 43 1009.2
20260503215028 13 175 4.8 14.5 0.00 0.00 0.00 43 1009.2
20260503214527 13 169 4.8 14.5 0.00 0.00 0.00 41 1009.2
20260503213958 13 161 4.8 12.9 0.00 0.00 0.00 42 1009.1
20260503213427 13 156 4.8 17.7 0.00 0.00 0.00 41 1009.2
20260503212927 14 177 6.4 17.7 0.00 0.00 0.00 42 1009.2
20260503212427 14 181 6.4 17.7 0.00 0.00 0.00 43 1009.2
20260503211930 14 167 8.0 20.9 0.00 0.00 0.00 43 1009.2
20260503211427 14 160 6.4 20.9 0.00 0.00 0.00 42 1009.2
20260503210857 15 189 4.8 20.9 0.00 0.00 0.00 41 1009.1
20260503210329 15 197 3.2 20.9 0.00 0.00 0.00 43 1009.2
20260503205757 15 190 3.2 16.1 0.00 0.00 0.00 41 1009.3
20260503205230 14 332 4.8 22.5 0.00 0.00 0.00 41 1009.3
20260503204727 14 23 6.4 22.5 0.00 0.00 0.00 41 1009.3
20260503204159 15 161 6.4 19.3 0.00 0.00 0.00 41 1009.5
20260503203627 14 209 6.4 19.3 0.00 0.00 0.00 42 1009.4
20260503203100 14 169 8.0 24.1 0.00 0.00 0.00 41 1009.5
20260503202527 14 177 6.4 29.0 0.00 0.00 0.00 42 1009.5
20260503202030 14 216 4.8 29.0 0.00 0.00 0.00 40 1009.7
20260503201457 14 172 4.8 14.5 0.00 0.00 0.00 43 1009.7
20260503200958 14 177 6.4 14.5 0.00 0.00 0.00 40 1009.7
20260503200427 14 171 6.4 16.1 0.00 0.00 0.00 41 1009.8
20260503195930 14 174 4.8 16.1 0.00 0.00 0.00 44 1009.7
20260503195357 14 166 4.8 22.5 0.00 0.00 0.00 44 1009.8
20260503194857 14 172 6.4 22.5 0.00 0.00 0.00 42 1010.0
20260503194330 13 176 4.8 20.9 0.00 0.00 0.00 43 1010.0
20260503193830 13 167 4.8 19.3 0.00 0.00 0.00 44 1010.0
20260503193257 13 156 6.4 19.3 0.00 0.00 0.00 42 1010.2
20260503192802 13 109 4.8 19.3 0.00 0.00 0.00 43 1010.2
20260503192227 13 93 4.8 19.3 0.00 0.00 0.00 42 1010.3
20260503191157 13 167 4.8 12.9 0.00 0.00 0.00 42 1010.5
20260503190127 13 154 6.4 17.7 0.00 0.00 0.00 43 1010.6
20260503185557 13 200 4.8 14.5 0.00 0.00 0.00 42 1010.7
20260503185057 13 195 4.8 17.7 0.00 0.00 0.00 44 1010.8
20260503184557 13 92 3.2 17.7 0.00 0.00 0.00 45 1010.8
20260503183527 13 348 4.8 11.3 0.00 0.00 0.00 43 1011.0
20260503183030 13 333 4.8 14.5 0.00 0.00 0.00 44 1010.9
20260503182459 13 6 4.8 16.1 0.00 0.00 0.00 43 1011.0
20260503181930 13 12 6.4 16.1 0.00 0.00 0.00 42 1011.0
20260503181358 13 335 4.8 16.1 0.00 0.00 0.00 42 1011.0
20260503180857 13 182 4.8 12.9 0.00 0.00 0.00 47 1011.1
20260503180357 12 178 4.8 12.9 0.00 0.00 0.00 46 1011.2
20260503175857 12 187 6.4 14.5 0.00 0.00 0.00 44 1011.2
20260503175327 12 172 8.0 17.7 0.00 0.00 0.00 43 1011.3
20260503174830 12 169 8.0 25.7 0.00 0.00 0.00 44 1011.3
20260503174257 13 178 6.4 25.7 0.00 0.00 0.00 44 1011.4
20260503173800 12 28 4.8 16.1 0.00 0.00 0.00 47 1011.4
20260503173230 12 163 4.8 14.5 0.00 0.00 0.00 43 1011.5
20260503172657 12 181 4.8 17.7 0.00 0.00 0.00 45 1011.5
20260503172157 12 192 4.8 17.7 0.00 0.00 0.00 44 1011.6
20260503171627 12 192 6.4 20.9 0.00 0.00 0.00 44 1011.6
20260503171057 12 191 8.0 20.9 0.00 0.00 0.00 44 1011.6
20260503170527 12 212 4.8 17.7 0.00 0.00 0.00 44 1011.8
20260503160157 10 53 4.8 14.5 0.00 0.03 0.00 45 1012.1
20260503150301 9 66 3.2 9.7 0.00 0.05 0.00 48 1012.5
20260503131227 5 215 1.6 9.7 0.00 0.10 0.00 73 1012.9
20260503130127 4 175 0.0 4.8 0.00 0.10 0.00 77 1012.8
20260503110357 -1 326 0.0 1.6 0.00 0.10 0.00 93 1012.4
20260503090156 -2 0 0.0 0.0 0.00 0.10 0.00 91 1012.1
20260503080801 -2 0 0.0 0.0 0.00 0.10 0.00 91 1012.0
20260503080226 -2 0 0.0 0.0 0.00 0.10 0.00 90 1012.0
20260503072526 -1 0 0.0 0.0 0.00 0.10 0.00 90 1012.0
20260503071956 -1 0 0.0 0.0 0.00 0.10 0.00 90 1012.0
20260503071426 -1 0 0.0 0.0 0.00 0.10 0.00 90 1011.8
20260503070926 -1 0 0.0 0.0 0.00 0.10 0.00 90 1011.8
20260503070356 -1 0 0.0 0.0 0.00 0.10 0.00 90 1011.8
20260503055026 -1 0 0.0 0.0 0.00 0.10 0.00 87 1012.3
20260503054456 0 0 0.0 0.0 0.00 0.10 0.00 87 1012.2
20260503053926 0 0 0.0 0.0 0.00 0.10 0.00 87 1012.2
20260503053356 0 326 0.0 1.6 0.00 0.10 0.00 87 1012.2
20260503052826 0 326 0.0 1.6 0.00 0.10 0.00 87 1012.2
20260503052327 0 0 0.0 0.0 0.00 0.10 0.00 87 1012.4
20260503051756 0 0 0.0 0.0 0.00 0.10 0.00 87 1012.4
20260503051256 0 0 0.0 0.0 0.00 0.10 0.00 87 1012.4
20260503050728 0 0 0.0 0.0 0.00 0.10 0.00 86 1012.4
20260503050227 0 0 0.0 0.0 0.00 0.10 0.00 86 1012.5
20260503045726 0 0 0.0 0.0 0.00 0.10 0.00 86 1012.5
20260503045156 0 0 0.0 0.0 0.00 0.10 0.00 85 1012.6
20260503044627 0 0 0.0 0.0 0.00 0.10 0.00 84 1012.5
20260503044056 0 0 0.0 0.0 0.00 0.10 0.00 84 1012.5
20260503043556 0 0 0.0 0.0 0.00 0.10 0.00 83 1012.6
20260503043026 0 0 0.0 0.0 0.00 0.10 0.00 82 1012.6
20260503042456 0 0 0.0 0.0 0.00 0.10 0.00 81 1012.5
20260503041956 1 0 0.0 0.0 0.00 0.10 0.00 81 1012.5
20260503041426 1 0 0.0 0.0 0.00 0.10 0.00 80 1012.5
20260503040926 1 0 0.0 0.0 0.00 0.10 0.00 79 1012.5
20260503040426 1 0 0.0 0.0 0.00 0.10 0.00 78 1012.5
20260503035926 2 0 0.0 0.0 0.00 0.10 0.10 78 1012.5
20260503035356 2 0 0.0 0.0 0.00 0.10 0.10 78 1012.5
20260503034826 2 0 0.0 0.0 0.00 0.10 0.10 77 1012.5
20260503034256 2 0 0.0 0.0 0.00 0.10 0.10 76 1012.6
20260503033726 2 0 0.0 0.0 0.00 0.10 0.10 76 1012.6
20260503033156 2 0 0.0 0.0 0.00 0.10 0.10 76 1012.6
20260503032656 2 0 0.0 0.0 0.00 0.10 0.10 75 1012.6
20260503032156 2 0 0.0 0.0 0.00 0.10 0.10 74 1012.7
20260503031656 2 0 0.0 0.0 0.00 0.10 0.10 74 1012.8
20260503031126 2 340 0.0 1.6 0.00 0.10 0.10 74 1012.7
20260503030626 2 340 0.0 1.6 0.00 0.10 0.10 74 1012.7
20260503030056 2 15 0.0 4.8 0.00 0.10 0.10 74 1012.8
20260503025556 2 19 0.0 6.4 0.00 0.10 0.10 73 1012.8
20260503025026 2 9 0.0 6.4 0.00 0.10 0.10 73 1012.8
20260503024456 2 0 0.0 0.0 0.00 0.10 0.10 73 1012.8
20260503023926 2 10 0.0 1.6 0.00 0.10 0.10 72 1012.9
20260503023356 2 349 0.0 1.6 0.00 0.10 0.10 72 1013.0
20260503022826 2 343 0.0 3.2 0.00 0.10 0.10 72 1013.0
20260503022256 2 317 0.0 3.2 0.00 0.10 0.10 72 1013.0
20260503021726 2 347 0.0 8.0 0.00 0.10 0.10 72 1012.9
20260503021226 2 9 0.0 8.0 0.00 0.10 0.10 71 1012.9
20260503020726 3 3 0.0 3.2 0.00 0.10 0.10 71 1012.8
20260503020226 2 351 0.0 3.2 0.00 0.10 0.10 71 1012.8
20260503015656 3 352 0.0 3.2 0.00 0.10 0.10 71 1012.8
20260503015156 3 3 0.0 3.2 0.00 0.10 0.10 70 1012.8
20260503014626 3 8 0.0 1.6 0.00 0.10 0.10 70 1012.8